sat.trackr.live / text

‹ back to catalog

STARLINK-35399

NORAD 66029 · 2025-232AA

PAYLOAD ACTIVE UNKNOWN

§ Identity

Operator
Country
US
Launch date
2025-10-16
Launch site
AFETR
Launch vehicle
Mass (kg)
RCS (m²)

Purposes: comms

External: N2YO · Heavens-Above · Gunter

§ Orbital elements

Epoch: 2026-09-20T05:40:45.042816Z

Period
93.85 min
Inclination
53.1590°
Eccentricity
0.0000833
Mean motion
15.34405194 rev/d
Perigee alt
462.1 km
Apogee alt
463.3 km
Semi-major
6,840.8 km
B*
2.8280e-4
RAAN
277.2640°
Arg perigee
81.6358°
Mean anomaly
278.4739°
Rev number
5,326

§ Raw data

STARLINK-353991 66029U 25232AA  26263.23663244  .00009192  00000+0  28280-3 0  99992 66029  53.1590 277.2640 0000833  81.6358 278.4739 15.34405194 53263

JSON: /api/v1/satellites/66029 · /tle

For live sub-satellite position, see the globe view (requires WebGL).

§ Visibility from observer

Set your observer location to see the next 7 days of passes ≥ 10°. The values pass through the URL so the page stays shareable.

No JS? Fill the form by hand. The geolocation button needs JavaScript.